Date String (YYYY-MM-DD hh:mm:ss) UTC,Instrument flags,absolute air pressure of the measurement (hPa),sample flow rate (lpm),inlet stack bypass flow (lpm),air temperature of the measurement (°C),ambient temperature measured by the external sensor (°C),aerosol sample conditioner tube jacket temperature (°C),OPC LED temperature (°C),internal box temperature (°C),relative humidity of the measurement (%),span deviation,mass concentration of particles derived from Lorenz-Mie calculation of OPC scattering (μg/m³),mass concentration of particles derived from Lorenz-Mie calculation of OPC scattering (μg/m³),mass concentration of particles derived from Lorenz-Mie calculation of OPC scattering (μg/m³)
DateTimeUTC,F1_M11,P_M11,Q1_M11,Q2_M11,T1_M11,T2_M11,T3_M11,T4_M11,T5_M11,U1_M11,ZSPAN_M11,X2_M11,X0_M11,X1_M11
2024-01-08 18:00:00,SystemResetWarning,0823.6,5.01,000.00,019.2,018.6,000.0,027.4,020.6,11.6,0000.0,0003.10,0006.85,0002.63
2024-01-08 18:01:00,SystemResetWarning,0823.6,5.01,000.00,019.2,018.6,000.0,027.4,020.6,11.7,0000.0,0003.09,0006.95,0002.64
2024-01-08 18:02:00,SystemResetWarning,0823.5,5.00,000.00,019.2,018.6,000.0,027.4,020.6,11.7,0000.0,0003.05,0005.86,0002.63
2024-01-08 18:03:00,SystemResetWarning,0823.5,4.99,000.00,019.2,018.7,000.0,027.4,020.6,11.7,0000.0,0003.05,0005.83,0002.63
2024-01-08 18:04:00,SystemResetWarning,0823.5,5.00,000.00,019.2,018.7,000.0,027.4,020.6,11.7,0000.0,0003.05,0005.84,0002.62
2024-01-08 18:05:00,SystemResetWarning,0823.5,4.99,000.00,019.2,018.7,000.0,027.5,020.6,11.6,0000.0,0003.03,0006.47,0002.59
2024-01-08 18:06:00,SystemResetWarning,0823.5,5.00,000.00,019.2,018.7,000.0,027.5,020.7,11.5,0000.0,0002.98,0006.88,0002.57
2024-01-08 18:07:00,SystemResetWarning,0823.5,5.00,000.00,019.3,018.7,000.0,027.5,020.7,11.6,0000.0,0002.95,0007.02,0002.56
2024-01-08 18:08:00,SystemResetWarning,0823.4,5.00,000.00,019.3,018.7,000.0,027.5,020.7,11.6,0000.0,0002.95,0007.31,0002.54
2024-01-08 18:09:00,SystemResetWarning,0823.4,5.00,000.00,019.3,018.7,000.0,027.5,020.7,11.6,0000.0,0002.93,0006.94,0002.52
2024-01-08 18:10:00,SystemResetWarning,0823.5,5.01,000.00,019.3,018.8,000.0,027.5,020.7,11.6,0000.0,0002.95,0006.78,0002.49
2024-01-08 18:11:00,SystemResetWarning,0823.5,5.00,000.00,019.3,018.8,000.0,027.5,020.8,11.6,0000.0,0002.96,0006.05,0002.48
2024-01-08 18:12:00,SystemResetWarning,0823.4,4.99,000.00,019.3,018.8,000.0,027.5,020.8,11.6,0000.0,0002.94,0005.90,0002.47
2024-01-08 18:13:00,SystemResetWarning,0823.4,4.99,000.00,019.3,018.8,000.0,027.6,020.8,11.5,0000.0,0002.93,0005.95,0002.46
2024-01-08 18:14:00,SystemResetWarning,0823.4,5.00,000.00,019.4,018.8,000.0,027.6,020.8,11.6,0000.0,0002.92,0005.97,0002.45
2024-01-08 18:15:00,SystemResetWarning,0823.4,5.00,000.00,019.4,018.8,000.0,027.6,020.8,11.5,0000.0,0002.92,0006.51,0002.45
2024-01-08 18:16:00,SystemResetWarning,0823.4,5.00,000.00,019.4,018.8,000.0,027.6,020.8,11.4,0000.0,0002.93,0006.17,0002.47
2024-01-08 18:17:00,SystemResetWarning,0823.4,5.00,000.00,019.4,018.8,000.0,027.6,020.9,11.4,0000.0,0002.94,0005.51,0002.47
2024-01-08 18:18:00,SystemResetWarning,0823.4,5.01,000.00,019.4,018.8,000.0,027.6,020.9,11.3,0000.0,0002.94,0005.30,0002.48
2024-01-08 18:19:00,SystemResetWarning,0823.4,5.00,000.00,019.4,018.8,000.0,027.6,020.9,11.3,0000.0,0002.89,0005.68,0002.46
2024-01-08 18:20:00,SystemResetWarning,0823.4,5.00,000.00,019.5,018.9,000.0,027.7,020.9,11.3,0000.0,0002.87,0005.73,0002.47
2024-01-08 18:21:00,SystemResetWarning,0823.4,5.00,000.00,019.5,018.9,000.0,027.7,020.9,11.4,0000.0,0002.86,0005.65,0002.49
2024-01-08 18:22:00,SystemResetWarning,0823.4,5.00,000.00,019.5,018.9,000.0,027.7,021.0,11.4,0000.0,0002.85,0005.62,0002.49
2024-01-08 18:23:00,SystemResetWarning,0823.3,5.00,000.00,019.5,019.0,000.0,027.7,021.0,11.3,0000.0,0002.86,0005.61,0002.48
2024-01-08 18:24:00,SystemResetWarning,0823.3,5.00,000.00,019.5,019.0,000.0,027.7,021.0,11.3,0000.0,0002.81,0005.47,0002.46
2024-01-08 18:25:00,SystemResetWarning,0823.3,5.00,000.00,019.5,019.0,000.0,027.7,021.0,11.2,0000.0,0002.83,0005.48,0002.45
2024-01-08 18:26:00,SystemResetWarning,0823.3,5.00,000.00,019.6,019.0,000.0,027.7,021.0,11.2,0000.0,0002.82,0005.06,0002.42
2024-01-08 18:27:00,SystemResetWarning,0823.3,5.00,000.00,019.6,019.0,000.0,027.8,021.0,11.2,0000.0,0002.80,0004.86,0002.40
2024-01-08 18:28:00,SystemResetWarning,0823.3,5.00,000.00,019.6,019.0,000.0,027.8,021.0,11.2,0000.0,0002.77,0004.84,0002.39
2024-01-08 18:29:00,SystemResetWarning,0823.2,4.99,000.00,019.6,019.0,000.0,027.8,021.1,11.2,0000.0,0002.77,0005.90,0002.38
2024-01-08 18:30:00,SystemResetWarning,0823.2,5.00,000.00,019.6,019.0,000.0,027.8,021.1,11.2,0000.0,0002.79,0005.14,0002.36
2024-01-08 18:31:00,SystemResetWarning,0823.2,5.00,000.00,019.6,019.1,000.0,027.8,021.1,11.3,0000.0,0002.78,0005.12,0002.33
2024-01-08 18:32:00,SystemResetWarning,0823.2,5.00,000.00,019.6,019.1,000.0,027.8,021.1,11.3,0000.0,0002.77,0005.79,0002.31
2024-01-08 18:33:00,SystemResetWarning,0823.3,5.00,000.00,019.7,019.1,000.0,027.8,021.1,11.3,0000.0,0002.73,0006.02,0002.28
2024-01-08 18:34:00,SystemResetWarning,0823.2,5.00,000.00,019.7,019.1,000.0,027.9,021.1,11.3,0000.0,0002.69,0005.90,0002.28
2024-01-08 18:35:00,SystemResetWarning,0823.2,5.00,000.00,019.7,019.1,000.0,027.9,021.1,11.4,0000.0,0002.69,0005.89,0002.27
2024-01-08 18:36:00,SystemResetWarning,0823.1,5.00,000.00,019.7,019.2,000.0,027.9,021.1,11.4,0000.0,0002.70,0007.23,0002.26
2024-01-08 18:37:00,SystemResetWarning,0823.2,5.00,000.00,019.7,019.2,000.0,027.9,021.1,11.4,0000.0,0002.69,0007.26,0002.26
2024-01-08 18:38:00,SystemResetWarning,0823.1,5.01,000.00,019.7,019.2,000.0,027.9,021.1,11.3,0000.0,0002.69,0007.21,0002.25
2024-01-08 18:39:00,SystemResetWarning,0823.1,5.00,000.00,019.7,019.2,000.0,027.9,021.1,11.3,0000.0,0002.70,0007.24,0002.24
2024-01-08 18:40:00,SystemResetWarning,0823.1,5.00,000.00,019.7,019.2,000.0,028.0,021.2,11.4,0000.0,0002.73,0006.25,0002.22
2024-01-08 18:41:00,SystemResetWarning,0823.1,5.00,000.00,019.8,019.2,000.0,028.0,021.2,11.4,0000.0,0002.73,0006.25,0002.22
2024-01-08 18:42:00,SystemResetWarning,0823.1,5.00,000.00,019.8,019.2,000.0,028.0,021.2,11.4,0000.0,0002.70,0006.06,0002.22
2024-01-08 18:43:00,SystemResetWarning,0823.1,5.00,000.00,019.8,019.3,000.0,028.0,021.2,11.4,0000.0,0002.66,0005.31,0002.20
2024-01-08 18:44:00,SystemResetWarning,0823.1,5.00,000.00,019.8,019.3,000.0,028.0,021.2,11.5,0000.0,0002.67,0005.18,0002.20
2024-01-08 18:45:00,SystemResetWarning,0823.1,5.00,000.00,019.8,019.3,000.0,028.0,021.2,11.4,0000.0,0002.66,0005.22,0002.19
2024-01-08 18:46:00,SystemResetWarning,0823.0,5.00,000.00,019.8,019.3,000.0,028.0,021.2,11.4,0000.0,0002.64,0005.18,0002.18
2024-01-08 18:47:00,SystemResetWarning,0823.0,4.99,000.00,019.8,019.3,000.0,028.0,021.2,11.3,0000.0,0002.58,0003.78,0002.17
2024-01-08 18:48:00,SystemResetWarning,0823.0,5.00,000.00,019.8,019.3,000.0,028.1,021.2,11.3,0000.0,0002.60,0003.70,0002.16
2024-01-08 18:49:00,SystemResetWarning,0822.9,5.00,000.00,019.8,019.3,000.0,028.1,021.2,11.2,0000.0,0002.64,0003.80,0002.15
2024-01-08 18:50:00,SystemResetWarning,0822.9,5.00,000.00,019.8,019.3,000.0,028.1,021.2,11.2,0000.0,0002.65,0003.78,0002.16
2024-01-08 18:51:00,SystemResetWarning,0823.0,5.00,000.00,019.8,019.3,000.0,028.1,021.2,11.2,0000.0,0002.60,0003.71,0002.16
2024-01-08 18:52:00,SystemResetWarning,0823.0,5.01,000.00,019.9,019.3,000.0,028.1,021.2,11.1,0000.0,0002.57,0003.76,0002.16
2024-01-08 18:53:00,SystemResetWarning,0823.0,4.99,000.00,019.9,019.3,000.0,028.1,021.3,11.0,0000.0,0002.60,0003.92,0002.15
2024-01-08 18:54:00,SystemResetWarning,0823.0,4.99,000.00,019.9,019.3,000.0,028.1,021.3,11.0,0000.0,0002.65,0005.09,0002.15
2024-01-08 18:55:00,SystemResetWarning,0823.0,5.01,000.00,019.9,019.3,000.0,028.1,021.3,11.0,0000.0,0002.65,0005.63,0002.15
2024-01-08 18:56:00,SystemResetWarning,0823.0,5.02,000.00,019.9,019.3,000.0,028.1,021.3,11.0,0000.0,0002.65,0006.38,0002.16
2024-01-08 18:57:00,SystemResetWarning,0823.1,4.99,000.00,019.9,019.3,000.0,028.1,021.3,11.0,0000.0,0002.68,0006.57,0002.17
2024-01-08 18:58:00,SystemResetWarning,0823.1,4.99,000.00,019.9,019.4,000.0,028.2,021.4,11.1,0000.0,0002.68,0006.59,0002.18
2024-01-08 18:59:00,SystemResetWarning,0823.0,5.00,000.00,019.9,019.4,000.0,028.2,021.4,11.1,0000.0,0002.69,0006.83,0002.17
